Location: Bo?a Wola
(50.4192°N, 19.7966°E)
Time: 20:42:38
(UTC+00:00)

Cosmos 1455 Rocket - Pass Details

Date: 22 September 2024
Orbit: 601 x 623 km, 82.5° (Epoch: 13 October)

Event Time Altitude Azimuth Distance (km) Brightness Sun altitude
Exits shadow 01:23:35 14° 333° (NNW) 1,726 5.4 -27.9°
Drops below altitude 10° 01:24:30 10° 343° (NNW) 1,974 5.9 -27.7°
Sets 01:27:14 0° 0° (N) 2,888 7.0 -27.4°
